1487959201.14,18321,9.63,72058.5,-13.01,-13.83,-13.87,0,*6E
1487959202.43,18322,9.63,72060.3,-13.01,-13.87,-13.87,0,*69
1487959203.72,18323,9.63,72056.5,-13.01,-13.87,-13.87,0,*68
1487959205.01,18324,9.63,72054.8,-12.99,-13.87,-13.87,0,*6F
1487959206.29,18325,9.63,72054.5,-12.99,-13.87,-13.87,0,*6E
1487959207.59,18326,9.63,72054.3,-12.99,-13.83,-13.87,0,*69
1487959208.88,18327,9.63,72056.5,-12.99,-13.87,-13.87,0,*6C
1487959210.17,18328,9.63,72052.0,-12.99,-13.83,-13.87,0,*67
1487959211.46,18329,9.63,72044.8,-12.99,-13.87,-13.87,0,*62
1487959212.76,18330,9.63,72046.8,-12.99,-13.83,-13.87,0,*6E
1487959214.05,18331,9.63,72052.5,-12.99,-13.87,-13.87,0,*6B
1487959215.33,18332,9.63,72058.3,-12.99,-13.87,-13.87,0,*68
1487959216.62,18333,9.63,72064.5,-12.99,-13.87,-13.87,0,*69
1487959217.92,18334,9.63,72066.5,-12.99,-13.83,-13.87,0,*6A
1487959219.2,18335,9.63,72062.0,-12.97,-13.83,-13.97,0,*64
1487959220.44,18336,9.63,72056.8,-12.97,-13.97,-14.11,0,*6B
1487959221.69,18337,9.63,72022.3,-12.97,-14.37,-14.51,0,*63
1487959222.96,18338,9.63,72010.8,-12.99,-14.55,-14.61,0,*65
1487959224.26,18339,9.63,72024.3,-12.99,-14.55,-14.47,0,*60
1487959225.53,18340,9.63,72014.3,-12.99,-14.33,-14.47,0,*6E
1487959226.84,18341,9.63,72022.3,-12.99,-14.47,-14.47,0,*6C
1487959228.14,18342,9.63,72024.5,-13.01,-14.43,-14.47,0,*6B
1487959229.4,18343,9.63,72022.8,-13.01,-14.33,-14.43,0,*69
1487959230.64,18344,9.63,72026.0,-13.01,-14.33,-14.33,0,*69
1487959231.85,18345,9.63,72020.8,-13.03,-14.33,-14.33,0,*6A
1487959233.1,18346,9.63,72036.3,-13.01,-14.19,-14.33,0,*63
1487959234.32,18347,9.63,72038.0,-13.03,-14.19,-14.29,0,*6B
1487959235.57,18348,9.63,72040.0,-13.01,-14.19,-14.29,0,*66
1487959236.78,18349,9.63,72030.5,-13.03,-14.29,-14.19,0,*65
1487959238.02,18350,9.63,72028.5,-13.01,-14.29,-14.33,0,*67
1487959239.24,18351,9.63,72024.3,-13.03,-14.29,-14.29,0,*6F
1487959240.48,18352,9.63,72012.8,-13.01,-14.29,-14.33,0,*65
1487959241.71,18353,9.63,72010.8,-13.03,-14.19,-14.33,0,*65
1487959242.94,18354,9.63,72010.0,-13.01,-14.29,-14.19,0,*6B
1487959244.17,18355,9.63,72018.5,-13.03,-14.15,-14.19,0,*67
1487959245.42,18356,9.63,72026.0,-13.03,-14.05,-14.19,0,*65
1487959246.65,18357,9.63,72018.0,-13.03,-14.15,-14.15,0,*69
1487959247.87,18358,9.63,72020.3,-13.03,-14.19,-14.19,0,*66
1487959249.12,18359,9.63,72030.8,-13.03,-14.05,-14.29,0,*69
1487959250.34,18360,9.63,72030.8,-13.03,-14.19,-14.29,0,*6E
1487959251.59,18361,9.63,72022.8,-13.03,-14.05,-14.19,0,*61
1487959252.86,18362,9.63,72026.0,-13.03,-14.01,-14.01,0,*6F
1487959254.11,18363,9.63,72016.8,-13.03,-13.93,-14.01,0,*62
1487959255.34,18364,9.63,72008.0,-13.03,-14.15,-14.15,0,*69
1487959256.56,18365,9.63,72004.8,-13.03,-14.19,-14.19,0,*68
1487959257.78,18366,9.63,72012.3,-13.03,-14.15,-14.19,0,*67
1487959259.01,18367,9.63,72012.0,-13.03,-14.19,-14.15,0,*66
1487959260.23,18368,9.63,71980.8,-13.03,-14.19,-14.19,0,*65
1487959261.45,18369,9.63,71992.8,-13.03,-14.19,-14.29,0,*67
1487959262.68,18370,9.63,71984.0,-13.03,-14.19,-14.29,0,*6F
1487959263.93,18371,9.63,71972.5,-13.03,-14.05,-14.19,0,*60
1487959265.17,18372,9.63,71986.0,-13.03,-13.93,-14.01,0,*62
1487959266.44,18373,9.63,72010.3,-13.03,-13.87,-14.01,0,*66
1487959267.71,18374,9.56,72000.5,-13.03,-13.87,-14.01,0,*61
1487959268.95,18375,9.63,72014.8,-13.03,-13.93,-14.01,0,*65
1487959270.22,18376,9.63,72024.3,-13.03,-13.87,-14.01,0,*63
1487959271.5,18377,9.56,72014.5,-13.01,-14.05,-14.15,0,*68
1487959272.74,18378,9.63,72022.8,-13.03,-13.93,-14.01,0,*68
1487959273.95,18379,9.56,72024.8,-13.03,-13.93,-13.93,0,*65
1487959275.19,18380,9.56,72030.3,-13.03,-13.87,-13.93,0,*66
1487959276.42,18381,9.63,72024.8,-13.03,-13.87,-13.93,0,*67
1487959277.69,18382,9.56,72022.3,-13.03,-13.87,-13.87,0,*61
1487959278.96,18383,9.63,72026.8,-13.03,-13.83,-13.87,0,*64
1487959280.22,18384,9.63,72030.8,-13.03,-13.87,-13.87,0,*67
1487959281.48,18385,9.63,72020.0,-13.01,-13.87,-13.93,0,*61
1487959282.72,18386,9.63,72040.5,-13.03,-13.87,-13.93,0,*60
1487959283.99,18387,9.63,72034.5,-13.03,-13.87,-14.01,0,*6D
1487959285.26,18388,9.63,72032.8,-13.01,-14.05,-14.15,0,*68
1487959286.48,18389,9.63,72020.3,-13.03,-14.19,-14.29,0,*69
1487959287.74,18390,9.63,72018.8,-13.01,-14.33,-14.43,0,*67
1487959288.96,18391,9.63,72018.5,-13.03,-14.33,-14.33,0,*63
1487959290.22,18392,9.63,72026.0,-13.01,-14.33,-14.43,0,*65
1487959291.47,18393,9.63,71996.3,-13.01,-14.19,-14.19,0,*63
1487959292.69,18394,9.63,71982.3,-13.03,-14.19,-14.29,0,*65
1487959293.9,18395,9.63,71992.0,-13.03,-14.29,-14.19,0,*64
1487959295.15,18396,9.63,72000.3,-13.03,-13.93,-14.01,0,*68
1487959296.38,18397,9.63,72012.5,-13.01,-13.93,-13.93,0,*67
1487959297.62,18398,9.63,72032.0,-13.03,-13.87,-13.93,0,*6F
1487959298.85,18399,9.63,72026.0,-13.03,-13.87,-13.93,0,*6E
1487959300.1,18400,9.63,72028.3,-13.03,-13.93,-14.01,0,*60
1487959301.33,18401,9.63,72032.0,-13.03,-13.87,-13.93,0,*68
1487959302.57,18402,9.63,72036.0,-13.03,-13.87,-13.93,0,*6B
1487959303.81,18403,9.63,72038.0,-13.03,-13.87,-13.93,0,*6A
1487959305.07,18404,9.63,72032.0,-13.01,-13.87,-13.93,0,*6F
1487959306.35,18405,9.63,72048.8,-13.01,-13.87,-13.87,0,*6B
1487959307.65,18406,9.63,72054.5,-13.01,-13.83,-13.87,0,*6C
1487959308.9,18407,9.63,72048.0,-13.01,-13.93,-13.87,0,*6C
1487959310.21,18408,9.63,72046.0,-13.01,-14.01,-14.01,0,*66
1487959311.45,18409,9.63,72046.0,-13.03,-13.93,-14.01,0,*69
1487959312.75,18410,9.56,72032.3,-13.01,-14.01,-14.01,0,*6F
1487959314.01,18411,9.63,72030.8,-13.01,-13.93,-14.05,0,*66
1487959315.31,18412,9.56,72034.3,-13.01,-14.01,-14.05,0,*69
1487959316.58,18413,9.56,72046.8,-13.03,-14.01,-14.05,0,*6A
1487959317.86,18414,9.63,72050.8,-13.03,-14.01,-14.01,0,*69
1487959319.14,18415,9.63,72026.0,-13.03,-14.01,-14.01,0,*68
1487959320.41,18416,9.63,72008.8,-13.03,-14.01,-14.05,0,*6F
1487959321.68,18417,9.63,72000.5,-13.01,-13.93,-14.01,0,*64
1487959322.91,18418,9.63,71998.8,-13.01,-13.93,-13.93,0,*67
1487959324.14,18419,9.63,72000.5,-13.01,-13.93,-13.93,0,*66
1487959325.38,18420,9.63,72016.8,-13.01,-13.93,-13.93,0,*6C
1487959326.66,18421,9.63,72020.5,-13.01,-13.87,-13.87,0,*6D
1487959327.93,18422,9.63,72030.8,-13.03,-13.87,-13.87,0,*6C
1487959329.21,18423,9.63,72032.8,-13.01,-13.87,-13.87,0,*6F
1487959330.5,18424,9.63,72028.3,-13.01,-13.87,-13.87,0,*68
1487959331.76,18425,9.56,72032.3,-13.01,-13.87,-13.93,0,*6C
1487959333.05,18426,9.63,72036.5,-13.01,-13.87,-13.87,0,*6A
1487959334.33,18427,9.63,72040.0,-13.01,-13.87,-13.87,0,*6B
1487959335.62,18428,9.63,72042.5,-13.01,-13.87,-13.87,0,*64
1487959336.91,18429,9.63,72044.3,-13.01,-13.87,-13.87,0,*65
1487959338.17,18430,9.63,72038.0,-13.01,-13.93,-14.01,0,*61
1487959339.41,18431,9.63,72036.5,-13.01,-13.93,-13.93,0,*6C
1487959340.69,18432,9.56,72030.5,-13.01,-13.87,-13.87,0,*6F
1487959341.98,18433,9.63,72028.8,-12.99,-13.87,-13.87,0,*6E
1487959343.24,18434,9.63,72028.5,-12.99,-13.87,-13.93,0,*6C
1487959344.49,18435,9.56,72046.5,-13.03,-13.93,-14.01,0,*66
1487959345.79,18436,9.63,72030.0,-13.01,-14.01,-14.01,0,*6B
1487959347.04,18437,9.63,72032.0,-13.01,-14.15,-14.19,0,*66
1487959348.28,18438,9.63,71994.5,-13.01,-14.19,-14.29,0,*66
1487959349.56,18439,9.56,71992.3,-13.01,-14.05,-14.15,0,*65
1487959350.83,18440,9.63,72012.0,-13.01,-14.05,-14.15,0,*6B
1487959352.1,18441,9.63,72008.0,-13.01,-14.05,-14.15,0,*6A
1487959353.36,18442,9.63,72000.5,-13.01,-14.15,-14.15,0,*68
1487959354.57,18443,9.63,72012.8,-13.03,-14.29,-14.29,0,*6B
1487959355.85,18444,9.56,72016.3,-13.01,-14.05,-14.15,0,*6F
1487959357.12,18445,9.56,72000.3,-13.01,-14.01,-14.15,0,*6A
1487959358.35,18446,9.63,72014.8,-13.01,-13.93,-13.93,0,*6C
1487959359.62,18447,9.63,72022.0,-13.01,-13.93,-14.01,0,*61
1487959360.88,18448,9.56,72020.0,-13.01,-13.87,-13.93,0,*67
1487959362.13,18449,9.63,72028.0,-13.03,-14.01,-14.15,0,*64
1487959363.41,18450,9.63,72042.0,-13.03,-14.01,-14.05,0,*6D
1487959364.7,18451,9.63,72036.0,-13.01,-14.01,-14.05,0,*6E
1487959366.0,18452,9.63,72036.0,-13.01,-14.01,-14.01,0,*69
1487959367.27,18453,9.63,72044.8,-13.01,-13.83,-13.93,0,*69
1487959368.54,18454,9.63,72052.0,-13.01,-13.83,-13.93,0,*6E
1487959369.83,18455,9.63,72056.8,-13.01,-13.83,-13.87,0,*6A
1487959371.12,18456,9.63,72058.0,-13.01,-13.83,-13.83,0,*6D
1487959372.39,18457,9.63,72062.5,-12.99,-13.73,-13.83,0,*63
1487959373.65,18458,9.63,72054.3,-12.99,-13.73,-13.87,0,*68
1487959374.95,18459,9.63,72054.0,-12.99,-13.83,-13.83,0,*62
1487959376.24,18460,9.63,72050.0,-12.99,-13.83,-13.83,0,*68
1487959377.51,18461,9.63,72050.8,-12.99,-13.73,-13.83,0,*66
1487959378.77,18462,9.63,72050.0,-12.99,-13.73,-13.87,0,*61
1487959380.07,18463,9.63,72044.5,-12.99,-13.83,-13.87,0,*6F
1487959381.33,18464,9.63,72046.3,-12.97,-13.87,-13.87,0,*62
1487959382.62,18465,9.63,72048.3,-12.99,-13.87,-13.87,0,*6D
1487959383.91,18466,9.63,72056.8,-12.99,-13.83,-13.83,0,*6E
1487959385.17,18467,9.63,72060.3,-12.97,-13.79,-13.79,0,*61
1487959386.44,18468,9.63,72060.8,-12.99,-13.73,-13.87,0,*6B
1487959387.68,18469,9.63,72060.0,-12.99,-13.73,-13.73,0,*61
1487959388.89,18470,9.63,72076.0,-12.97,-13.65,-13.69,0,*6B
1487959390.15,18471,9.56,72076.0,-12.99,-13.73,-13.83,0,*67
1487959391.42,18472,9.63,72074.5,-12.99,-13.73,-13.87,0,*60
1487959392.69,18473,9.56,72070.3,-12.97,-13.83,-13.83,0,*64
1487959393.96,18474,9.63,72070.8,-12.97,-13.83,-13.83,0,*63
1487959395.25,18475,9.63,72070.8,-12.99,-13.87,-13.87,0,*6C
1487959396.51,18476,9.56,72074.3,-12.97,-13.79,-13.83,0,*64
1487959397.78,18477,9.63,72072.0,-12.99,-13.87,-13.93,0,*6B
1487959399.08,18478,9.63,72072.5,-12.99,-14.01,-14.01,0,*61
1487959400.35,18479,9.63,72078.8,-12.97,-13.87,-13.97,0,*6F
1487959401.62,18480,9.63,72084.5,-12.97,-13.87,-13.87,0,*68
1487959402.89,18481,9.56,72074.3,-12.97,-14.01,-14.01,0,*69
1487959404.17,18482,9.56,72056.8,-12.97,-14.01,-14.01,0,*6A
1487959405.45,18483,9.63,72054.8,-12.99,-14.05,-14.15,0,*64
1487959406.68,18484,9.56,72048.0,-12.97,-14.15,-14.23,0,*69
1487959407.91,18485,9.63,72054.5,-12.97,-14.15,-14.15,0,*6D
1487959409.16,18486,9.63,72054.5,-12.99,-14.19,-14.29,0,*63
1487959410.41,18487,9.63,72052.0,-12.99,-14.19,-14.29,0,*62
1487959411.65,18488,9.63,72042.3,-12.99,-14.33,-14.33,0,*6E
1487959412.91,18489,9.63,72038.3,-12.99,-14.33,-14.43,0,*68
1487959414.16,18490,9.56,72016.3,-12.99,-14.19,-14.29,0,*64
1487959415.44,18491,9.56,72028.8,-12.99,-14.05,-14.15,0,*67
1487959416.69,18492,9.63,72042.8,-12.99,-14.15,-14.15,0,*65
1487959417.94,18493,9.56,72038.8,-12.99,-14.15,-14.19,0,*68
1487959419.19,18494,9.63,72044.5,-12.99,-14.15,-14.19,0,*6F
1487959420.43,18495,9.56,72046.3,-13.01,-14.29,-14.29,0,*62
1487959421.68,18496,9.56,72042.5,-13.01,-14.15,-14.19,0,*6D
1487959422.98,18497,9.63,72040.8,-13.01,-14.05,-14.05,0,*60
1487959424.28,18498,9.63,72034.8,-13.01,-14.01,-14.05,0,*6B
1487959425.55,18499,9.63,72036.8,-13.01,-14.01,-14.15,0,*6B
1487959426.82,18500,9.63,72042.3,-13.01,-14.01,-13.93,0,*63
1487959428.05,18501,9.63,72042.8,-13.01,-13.93,-13.93,0,*6E
1487959429.32,18502,9.56,72022.0,-13.01,-13.93,-14.01,0,*61
1487959430.62,18503,9.56,72018.0,-13.01,-14.01,-14.01,0,*6C
1487959431.92,18504,9.63,72020.3,-13.01,-14.01,-14.01,0,*6B
1487959433.17,18505,9.56,72016.0,-13.01,-14.15,-14.19,0,*66
1487959434.41,18506,9.56,72014.8,-13.01,-14.15,-14.19,0,*65
1487959435.71,18507,9.63,72012.8,-13.01,-14.05,-14.05,0,*68
1487959437.01,18508,9.63,72010.8,-13.01,-14.01,-14.05,0,*63
1487959438.31,18509,9.63,72008.8,-13.01,-14.01,-14.05,0,*62
1487959439.58,18510,9.63,72010.3,-13.03,-14.01,-14.05,0,*68
1487959440.81,18511,9.63,72012.3,-13.01,-13.93,-13.93,0,*6F
1487959442.08,18512,9.63,72014.0,-12.99,-13.93,-14.05,0,*64
1487959443.38,18513,9.56,72016.3,-13.01,-14.01,-14.01,0,*6D
1487959444.65,18514,9.63,72022.3,-13.01,-13.93,-14.01,0,*66
1487959445.92,18515,9.63,72016.5,-13.01,-14.01,-14.15,0,*6E
1487959447.15,18516,9.63,72022.5,-13.01,-13.93,-13.93,0,*68
1487959448.45,18517,9.56,72000.3,-13.01,-14.01,-14.05,0,*6D
1487959449.72,18518,9.63,72008.8,-13.01,-13.93,-14.01,0,*6A
1487959450.95,18519,9.63,72016.8,-12.99,-13.93,-13.93,0,*67
1487959452.25,18520,9.63,72016.8,-12.99,-13.83,-13.87,0,*69
1487959453.54,18521,9.63,72022.5,-12.99,-13.83,-13.87,0,*68
1487959454.83,18522,9.56,72026.0,-13.01,-13.87,-13.87,0,*6F
1487959456.11,18523,9.63,72022.3,-13.01,-13.87,-13.87,0,*6E
1487959457.41,18524,9.63,72032.8,-12.99,-13.83,-13.87,0,*6D
1487959458.7,18525,9.63,72038.0,-12.99,-13.83,-13.87,0,*6C
1487959459.97,18526,9.63,72044.3,-12.99,-13.73,-13.87,0,*60
1487959461.23,18527,9.63,72046.3,-12.99,-13.73,-13.87,0,*61
1487959462.5,18528,9.63,72050.3,-12.99,-13.69,-13.83,0,*61
1487959463.76,18529,9.63,72058.5,-12.99,-13.73,-13.83,0,*6B
1487959465.0,18530,9.63,72060.5,-12.97,-13.65,-13.83,0,*6A
1487959466.26,18531,9.56,72062.8,-12.99,-13.73,-13.83,0,*62
1487959467.5,18532,9.63,72064.3,-12.97,-13.69,-13.83,0,*64
1487959468.79,18533,9.56,72058.5,-12.99,-13.87,-13.87,0,*6F
1487959470.07,18534,9.56,72046.3,-12.97,-13.83,-13.97,0,*63
1487959471.37,18535,9.63,72050.8,-12.99,-14.01,-14.05,0,*6D
1487959472.64,18536,9.63,72056.3,-12.97,-13.87,-13.87,0,*64
1487959473.91,18537,9.63,72070.5,-12.99,-13.83,-13.93,0,*6A
1487959475.17,18538,9.56,72070.0,-12.97,-13.79,-13.87,0,*6B
1487959476.43,18539,9.63,72064.5,-12.99,-13.87,-13.93,0,*60
1487959477.7,18540,9.63,72062.5,-12.97,-13.83,-13.87,0,*61
1487959478.97,18541,9.63,72066.0,-12.97,-13.83,-13.87,0,*60
1487959480.26,18542,9.63,72066.3,-12.99,-13.87,-14.05,0,*64
1487959481.54,18543,9.56,72062.0,-12.99,-14.01,-14.15,0,*6D
1487959482.77,18544,9.63,72062.0,-12.97,-14.11,-14.23,0,*60
1487959483.99,18545,9.63,72066.0,-12.97,-14.23,-14.23,0,*60
1487959485.24,18546,9.63,72054.5,-12.99,-14.19,-14.29,0,*6E
1487959486.48,18547,9.56,72056.5,-12.99,-14.29,-14.33,0,*67
1487959487.75,18548,9.63,72062.3,-12.99,-14.33,-14.43,0,*64
1487959488.99,18549,9.63,72060.0,-12.99,-14.19,-14.33,0,*6A
1487959490.27,18550,9.63,72052.3,-12.99,-14.05,-14.29,0,*64
1487959491.49,18551,9.56,72040.8,-12.97,-14.11,-14.23,0,*64
1487959492.75,18552,9.63,72046.3,-12.99,-14.15,-14.29,0,*67
1487959493.99,18553,9.56,72054.8,-13.01,-14.29,-14.33,0,*62
1487959495.23,18554,9.63,72050.0,-13.01,-14.19,-14.19,0,*6E
1487959496.48,18555,9.63,72052.0,-12.99,-14.15,-14.19,0,*63
1487959497.73,18556,9.63,72056.0,-12.99,-14.29,-14.29,0,*6C
1487959498.98,18557,9.63,72064.5,-12.99,-14.15,-14.19,0,*61
1487959500.25,18558,9.63,72058.3,-12.99,-14.01,-14.15,0,*67
1487959501.53,18559,9.63,72062.0,-12.99,-14.01,-14.15,0,*66
1487959502.83,18560,9.63,72052.5,-12.99,-14.01,-14.01,0,*69
1487959504.07,18561,9.63,72038.5,-12.99,-13.93,-13.93,0,*68
1487959505.3,18562,9.63,72046.5,-12.99,-13.93,-13.93,0,*6B
1487959506.54,18563,9.63,72080.3,-12.99,-13.93,-13.93,0,*6A
1487959507.81,18564,9.56,72068.5,-12.97,-13.97,-14.01,0,*6B
1487959509.08,18565,9.63,72062.8,-12.99,-13.93,-14.01,0,*60
1487959510.32,18566,9.63,72064.8,-12.99,-13.93,-13.93,0,*6F
1487959511.61,18567,9.63,72066.3,-13.01,-14.01,-14.05,0,*6A
1487959512.87,18568,9.63,72058.8,-12.99,-14.15,-14.15,0,*61
1487959514.12,18569,9.63,72054.3,-12.99,-14.15,-14.19,0,*6C
1487959515.39,18570,9.63,72052.0,-12.99,-14.05,-14.29,0,*66
1487959516.69,18571,9.63,72056.3,-12.99,-14.05,-14.05,0,*69
1487959517.99,18572,9.63,72054.5,-12.99,-14.01,-14.05,0,*6E
1487959519.26,18573,9.56,72042.0,-12.99,-13.87,-13.93,0,*6E
1487959520.52,18574,9.63,72052.0,-12.99,-13.87,-13.93,0,*69
1487959521.79,18575,9.63,72060.0,-12.99,-14.01,-14.15,0,*68
1487959523.04,18576,9.63,72050.0,-12.99,-14.19,-14.33,0,*66
1487959524.32,18577,9.63,72040.0,-12.99,-14.05,-14.19,0,*62
1487959525.58,18578,9.63,72062.0,-12.99,-13.93,-14.01,0,*6C
1487959526.88,18579,9.63,72052.5,-13.01,-14.01,-14.05,0,*65
1487959528.15,18580,9.63,72050.5,-12.99,-13.93,-14.01,0,*6B
1487959529.43,18581,9.63,72048.8,-12.97,-13.97,-13.97,0,*68
1487959530.69,18582,9.63,72054.3,-12.99,-13.87,-13.93,0,*60
1487959531.96,18583,9.63,72048.0,-12.97,-13.83,-13.87,0,*6E
1487959533.23,18584,9.63,72048.5,-12.99,-13.83,-13.93,0,*62
1487959534.49,18585,9.63,72064.5,-12.97,-13.79,-13.87,0,*6D
1487959535.76,18586,9.63,72066.3,-12.97,-13.83,-13.87,0,*6B
1487959537.0,18587,9.63,72066.3,-12.97,-13.87,-14.11,0,*66
1487959538.26,18588,9.63,72066.0,-12.97,-13.97,-14.15,0,*6C
1487959539.51,18589,9.56,72058.5,-12.99,-14.15,-14.19,0,*62
1487959540.75,18590,9.63,72048.5,-12.99,-14.29,-14.33,0,*6D
1487959542.0,18591,9.63,72044.8,-13.01,-14.19,-14.33,0,*6F
1487959543.24,18592,9.63,72036.3,-12.99,-14.19,-14.29,0,*67
1487959544.51,18593,9.63,72050.8,-12.99,-14.29,-14.43,0,*69
1487959545.8,18594,9.63,72040.8,-12.99,-14.43,-14.47,0,*66
1487959547.07,18595,9.63,72030.8,-12.99,-14.33,-14.43,0,*64
1487959548.31,18596,9.63,72030.3,-12.99,-14.33,-14.33,0,*60
1487959549.57,18597,9.63,72028.0,-12.99,-14.29,-14.43,0,*6D
1487959550.85,18598,9.63,72042.5,-12.99,-14.05,-14.19,0,*63
1487959552.12,18599,9.63,72038.8,-12.99,-14.05,-14.15,0,*6E
1487959553.42,18600,9.63,72036.8,-12.99,-14.01,-14.01,0,*6C
1487959554.72,18601,9.63,72050.3,-12.99,-14.01,-14.05,0,*69
1487959555.98,18602,9.56,72036.8,-12.99,-14.15,-14.15,0,*6E
1487959557.23,18603,9.63,72028.8,-12.99,-14.15,-14.19,0,*63
1487959558.51,18604,9.63,72040.5,-12.99,-14.05,-14.15,0,*69
1487959559.78,18605,9.63,72042.0,-12.99,-14.05,-14.15,0,*68
1487959561.05,18606,9.63,72042.8,-12.99,-13.93,-14.01,0,*66
1487959562.28,18607,9.56,72044.5,-12.99,-13.93,-13.93,0,*6B
1487959563.55,18608,9.63,72036.3,-13.01,-13.93,-14.01,0,*68
1487959564.82,18609,9.63,72038.5,-12.97,-13.87,-13.87,0,*6B
1487959566.05,18610,9.63,72044.3,-12.99,-13.93,-13.93,0,*6D
1487959567.32,18611,9.56,72030.5,-12.99,-13.83,-13.93,0,*6D
1487959568.58,18612,9.63,72026.5,-12.97,-13.79,-13.87,0,*60
1487959569.88,18613,9.56,72026.5,-12.99,-13.83,-13.87,0,*6A
1487959571.17,18614,9.63,72022.5,-12.99,-13.87,-13.87,0,*69
1487959572.46,18615,9.63,72020.3,-12.99,-13.83,-13.87,0,*6C
1487959573.73,18616,9.63,72026.3,-12.97,-13.83,-13.83,0,*65
1487959575.0,18617,9.63,72008.8,-12.97,-13.83,-13.83,0,*64
1487959576.26,18618,9.63,71992.3,-12.99,-13.87,-13.93,0,*60
1487959577.53,18619,9.63,72032.5,-12.97,-13.79,-13.87,0,*6B
1487959578.8,18620,9.63,72034.3,-12.97,-13.83,-13.83,0,*60
1487959580.06,18621,9.63,72030.0,-12.99,-13.87,-13.93,0,*6A
1487959581.33,18622,9.56,72006.0,-12.99,-14.01,-13.93,0,*60
1487959582.61,18623,9.63,71970.3,-12.97,-13.97,-13.97,0,*63
1487959583.88,18624,9.63,71970.3,-12.97,-13.83,-13.87,0,*60
1487959585.14,18625,9.63,72000.5,-12.97,-13.79,-13.87,0,*64
1487959586.4,18626,9.63,72010.0,-12.99,-13.87,-13.93,0,*6D
1487959587.7,18627,9.63,71982.3,-12.99,-13.83,-13.87,0,*6D
1487959588.94,18628,9.63,72010.5,-12.97,-13.69,-13.83,0,*6C
1487959590.21,18629,9.63,72026.0,-12.97,-13.83,-13.83,0,*69
1487959591.47,18630,9.63,72048.8,-12.97,-13.79,-13.79,0,*61
1487959592.76,18631,9.63,72044.0,-12.99,-13.83,-13.79,0,*6B
1487959594.0,18632,9.63,72034.5,-12.97,-13.65,-13.79,0,*6E
1487959595.24,18633,9.63,72038.0,-12.97,-13.69,-13.83,0,*66
1487959596.51,18634,9.63,72044.8,-12.97,-13.83,-13.83,0,*65
1487959597.77,18635,9.63,72054.5,-12.97,-13.79,-13.79,0,*64
1487959599.04,18636,9.63,72074.0,-12.97,-13.83,-13.83,0,*67
1487959600.3,18637,9.63,72056.5,-12.97,-13.79,-13.83,0,*63
1487959601.57,18638,9.63,72056.3,-12.97,-13.79,-13.83,0,*6C
1487959602.87,18639,9.63,72046.5,-12.95,-13.83,-13.83,0,*6A
1487959604.14,18640,9.63,72064.8,-12.97,-13.83,-13.83,0,*66
1487959605.4,18641,9.63,72062.5,-12.97,-13.79,-13.83,0,*62
1487959606.67,18642,9.56,72052.0,-12.97,-13.79,-13.83,0,*61
1487959607.96,18643,9.63,72064.8,-12.95,-13.79,-13.83,0,*62
1487959609.25,18644,9.63,72060.5,-12.95,-13.79,-13.79,0,*60
1487959610.55,18645,9.63,72046.0,-12.95,-13.83,-13.83,0,*61
1487959611.84,18646,9.63,72042.3,-12.95,-13.79,-13.79,0,*62
1487959613.14,18647,9.56,72034.5,-12.95,-13.83,-13.83,0,*63
1487959614.44,18648,9.56,72042.0,-12.95,-13.79,-13.83,0,*69
1487959615.74,18649,9.63,72042.8,-12.95,-13.83,-13.83,0,*6D
1487959617.04,18650,9.63,72046.0,-12.95,-13.83,-13.83,0,*65
1487959618.34,18651,9.63,72056.8,-12.95,-13.79,-13.83,0,*61
1487959619.63,18652,9.63,72046.5,-12.91,-13.83,-13.83,0,*63
1487959620.93,18653,9.63,72036.5,-12.95,-13.83,-13.87,0,*62
1487959622.19,18654,9.63,72038.3,-12.91,-13.73,-13.79,0,*6F
1487959623.48,18655,9.63,72050.5,-12.95,-13.79,-13.79,0,*60
1487959624.72,18656,9.63,72056.5,-12.91,-13.65,-13.65,0,*67
1487959625.96,18657,9.63,72054.0,-12.95,-13.69,-13.69,0,*62
1487959627.26,18658,9.63,72050.3,-12.95,-13.83,-13.83,0,*6D
1487959628.53,18659,9.63,72056.3,-12.91,-13.73,-13.79,0,*62
1487959629.79,18660,9.63,72052.5,-12.95,-13.69,-13.79,0,*67
1487959631.06,18661,9.63,72062.3,-12.95,-13.65,-13.79,0,*6A
1487959632.29,18662,9.63,72068.5,-12.91,-13.65,-13.65,0,*60
1487959633.54,18663,9.63,72070.0,-12.95,-13.65,-13.69,0,*69
1487959634.77,18664,9.63,72056.0,-12.91,-13.65,-13.65,0,*66
1487959636.06,18665,9.63,72054.8,-12.91,-13.61,-13.79,0,*6E
1487959637.32,18666,9.63,72052.0,-12.91,-13.73,-13.79,0,*6E
1487959638.61,18667,9.63,72060.8,-12.95,-13.79,-13.79,0,*61
1487959639.87,18668,9.63,72064.0,-12.91,-13.73,-13.79,0,*60
1487959641.13,18669,9.63,72066.3,-12.91,-13.79,-13.73,0,*61
1487959642.4,18670,9.63,72066.3,-12.91,-13.79,-13.73,0,*69
1487959643.65,18671,9.63,72066.3,-12.91,-13.73,-13.79,0,*68
1487959644.91,18672,9.63,72058.5,-12.91,-13.73,-13.79,0,*6B
1487959646.2,18673,9.56,72052.3,-12.91,-13.79,-13.79,0,*60
1487959647.48,18674,9.63,72052.3,-12.91,-13.79,-13.79,0,*67
1487959648.74,18675,9.63,72054.3,-12.91,-13.79,-13.93,0,*62
1487959650.04,18676,9.63,72052.0,-12.91,-13.83,-13.97,0,*60
1487959651.31,18677,9.63,72038.0,-12.91,-13.83,-13.93,0,*65
1487959652.61,18678,9.56,72028.0,-12.95,-13.87,-14.01,0,*66
1487959653.88,18679,9.63,72024.8,-12.91,-13.93,-14.05,0,*62
1487959655.18,18680,9.56,72020.8,-12.95,-13.87,-14.01,0,*61
1487959656.48,18681,9.63,72016.3,-12.91,-13.83,-14.05,0,*64
1487959657.77,18682,9.63,72018.0,-12.91,-13.83,-13.83,0,*6E
1487959659.07,18683,9.63,72016.3,-12.91,-13.83,-13.83,0,*6F
1487959660.37,18684,9.63,72020.3,-12.95,-13.87,-13.87,0,*6C
1487959661.66,18685,9.63,72030.3,-12.91,-13.83,-13.83,0,*69
1487959662.95,18686,9.56,72030.3,-12.91,-13.79,-13.83,0,*6F
1487959664.23,18687,9.63,72036.5,-12.91,-13.79,-13.83,0,*6E
1487959665.52,18688,9.56,72038.8,-12.91,-13.79,-13.83,0,*61
1487959666.81,18689,9.63,72048.5,-12.91,-13.79,-13.83,0,*60
1487959668.1,18690,9.63,72048.3,-12.91,-13.79,-13.83,0,*68
1487959669.39,18691,9.63,72048.5,-12.91,-13.79,-13.83,0,*69
1487959670.67,18692,9.63,72052.0,-12.91,-13.79,-13.83,0,*6A
1487959671.96,18693,9.56,72050.3,-12.91,-13.79,-13.83,0,*6B
1487959673.2,18694,9.63,72050.8,-12.91,-13.73,-13.73,0,*69
1487959674.46,18695,9.63,72048.5,-12.91,-13.73,-13.79,0,*62
1487959675.72,18696,9.63,72050.8,-12.91,-13.73,-13.79,0,*61
1487959676.98,18697,9.63,72056.8,-12.91,-13.73,-13.79,0,*60
1487959678.24,18698,9.63,72060.3,-12.91,-13.73,-13.79,0,*6F
1487959679.5,18699,9.56,72060.8,-12.91,-13.73,-13.79,0,*6E
1487959680.76,18700,9.56,72066.5,-12.91,-13.73,-13.79,0,*6F
1487959682.0,18701,9.63,72066.8,-12.91,-13.73,-13.73,0,*64
1487959683.24,18702,9.56,72070.8,-12.91,-13.73,-13.73,0,*67
1487959684.48,18703,9.56,72072.0,-12.91,-13.73,-13.73,0,*66
1487959685.72,18704,9.63,72072.8,-12.91,-13.73,-13.73,0,*61
1487959686.98,18705,9.63,72076.0,-12.91,-13.73,-13.79,0,*6A
1487959688.26,18706,9.56,72088.0,-12.91,-13.79,-13.79,0,*63
1487959689.52,18707,9.56,72090.3,-12.91,-13.79,-13.93,0,*66
1487959690.79,18708,9.63,72084.8,-12.91,-13.93,-13.97,0,*69
1487959692.06,18709,9.56,72090.3,-12.91,-13.93,-13.97,0,*68
1487959693.36,18710,9.56,72082.0,-12.91,-13.97,-13.97,0,*64
1487959694.63,18711,9.63,72076.8,-12.91,-13.83,-13.93,0,*64
1487959695.9,18712,9.63,72058.5,-12.91,-13.83,-13.93,0,*67
1487959697.17,18713,9.63,72064.5,-12.91,-13.83,-13.93,0,*66
1487959698.45,18714,9.63,72060.5,-12.91,-13.79,-13.83,0,*65
1487959699.74,18715,9.56,72060.5,-12.91,-13.79,-13.83,0,*64
1487959700.98,18716,9.63,72060.5,-12.89,-13.73,-13.87,0,*60
1487959702.27,18717,9.56,72050.3,-12.91,-13.83,-13.83,0,*63
1487959703.54,18718,9.56,72034.0,-12.91,-13.83,-13.93,0,*6D
1487959704.77,18719,9.56,72018.0,-12.91,-13.93,-14.11,0,*60
1487959706.04,18720,9.56,72018.3,-12.91,-13.93,-14.05,0,*6F